Simultaneous Nadir Overpasses (SNOs) Predictions

Prediction of SNOs between GOES-16 and NOAA-20 Satellite Orbit:

Table of predicted SNOs for the next 14.0 days since TLE Epoch: 5/17/2019
Index Date Time (GOES-16) GOES-16 Lat,Lon NOAA-20 Lat,Lon Distance(km) Time Diff (sec)
1 05/18/2019 06:23:39 0.00, -75.18 -0.05, -75.01 19.74 80
2 05/20/2019 18:26:50 0.00, -75.17 -0.13, -75.78 69.26 80
3 05/21/2019 18:10:45 0.01, -75.17 0.91, -71.25 447.01 80
4 05/23/2019 06:32:33 -0.01, -75.17 0.26, -76.52 153.65 80
5 05/24/2019 06:11:07 -0.01, -75.17 -0.72, -71.99 362.92 80
6 05/25/2019 18:33:03 0.02, -75.18 -0.43, -77.30 240.96 80
7 05/26/2019 18:16:58 0.02, -75.18 0.55, -72.76 276.21 80
8 05/28/2019 06:38:45 -0.02, -75.20 0.62, -78.03 322.85 80
9 05/29/2019 06:17:21 -0.02, -75.21 -0.42, -73.50 194.56 80
10 05/30/2019 18:39:16 0.02, -75.22 -0.79, -78.80 408.37 80




NCC Satellite Simultaneous Nadir Overpasses (SNOs) Prediction Service
